Location: �perlecques
(50.8057°N, 2.1521°E)
Time: 06:05:04
(UTC+00:00)

Vanguard 1 Rocket - Pass Details

Date: 04 August 2021
Orbit: 650 x 4226 km, 34.3° (Epoch: 17 September)

Event Time Altitude Azimuth Distance (km) Brightness Sun altitude
Rises 07:58:40 0° 216° (SW) 8,437 12.1 32.2°
Reaches altitude 10° 08:06:01 10° 207° (SSW) 7,216 11.9 33.3°
Maximum altitude 08:23:50 30° 158° (SSE) 4,603 11.9 36.0°
Drops below altitude 10° 08:35:41 10° 105° (ESE) 4,800 12.4 37.8°
Sets 08:39:16 0° 94° (E) 5,355 12.2 38.3°
